Location: Carr Mill
(33.2054°N, 85.9439°W)
Time: 20:39:56
(UTC+00:00)

STARLINK-2688 - Pass Details

Date: 24 June 2021
Orbit: 546 x 548 km, 53.1° (Epoch: 03 August)

Event Time Altitude Azimuth Distance (km) Brightness Sun altitude
Exits shadow 08:12:00 79° 30° (NNE) 560 3.6 -23.6°
Drops below altitude 10° 08:15:54 10° 44° (NE) 1,819 7.4 -23.1°
Enters shadow 09:12:09 -70° 225° (SW) 12,565 10.4 -15.1°
